Other Public Products
Issued by NWS Charleston, SC

Current Version | Previous Version | Graphics & Text | Print | Product List | Glossary On
Versions: 1 2 3 4 5 6 7 8 9 10 11 12 13 14 15 16 17 18 19 20 21 22 23 24 25 26 27 28 29 30 31 32 33 34 35 36 37 38 39 40 41 42 43 44 45 46 47 48 49 50
394
FPUS82 KCHS 220527
OPUCHS

TEST...KCHS/KSAV Gateway Observations...TEST
National Weather Service Charleston SC
100 AM EDT TUE MAY 22 2018

NOTE: "fair" indicates few or no clouds below 12,000 feet with no
significant weather and/or obstructions to visibility.

SCZ050-WAZ558-NCZ071-TXZ119-213-PAZ071-DCZ001-FLZ074-172-MI076-
NYZ176-178-MAZ016-IL014-TNZ027-NJZ106-GAZ044-MD014-220600-

...Gateway Observations for Charleston International...

CITY           SKY/WX    TMP DP  RH WIND       PRES   REMARKS
Chas Airport   MOCLDY    72  70  93 SE3       30.14S
Seattle        CLEAR     60  47  61 N8        30.01R
Charlotte      MOCLDY    71  69  93 S3        30.15S
Dallas DFW     CLOUDY    75  69  81 SE6       29.96R
Dallas Love    CLOUDY    77  70  79 S8        29.97S
Philladelphia  FAIR      62  53  72 SW5       30.17S
Wash National  CLOUDY    68  59  73 S6        30.16S
Baltimore      MOCLDY    66  58  75 SE3       30.15S
Miami          LGT RAIN  77  73  87 E13       30.04F
Detroit        RAIN      55  49  80 CALM      30.04F
Newark         MOCLDY    61  48  62 SW6       30.16R
Laguardia      MOCLDY    66  44  45 SW5       30.16R
J F K          MOCLDY    57  52  83 SW6       30.17S
Boston Logan   FAIR      62  49  62 SW10      30.12F
Ft. Lauderdale MOCLDY    79  74  84 SE15      30.04F
Chicago O`Hare MOCLDY    55  54  96 N5        29.97F FOG
Chicago Midway CLOUDY    58  57  97 N5        29.98F FOG
Houston Bush   MOCLDY    71  70  96 CALM      29.98R
Houston Hobby  MOCLDY    71  71 100 N5        29.97S
Nashville      FAIR      72  62  71 CALM      30.06F
Atlanta        MOCLDY    70  64  81 SE8       30.10F

$$

GAZ044-118-TXZ119-213-NCZ071-DCZ001-MDZ014-506-PAZ021-071-NJZ106-
NYZ176-178-MAZ106-OHZ011-021-055-MIZ076-KYZ091-ILZ014-INZ047-
MNZ060-ONZ431-220600-

...Gateway Observations for Savannah International...

CITY           SKY/WX    TMP DP  RH WIND       PRES   REMARKS
Savannah Arpt  FAIR      75  71  87 SE7       30.12F
Atlanta        MOCLDY    70  64  81 SE8       30.10F
Charlotte      MOCLDY    71  69  93 S3        30.15S
Dallas DFW     CLOUDY    75  69  81 SE6       29.96R
Houston Bush   MOCLDY    71  70  96 CALM      29.98R
Wash National  CLOUDY    68  59  73 S6        30.16S
Wash Dulles    CLOUDY    68  62  81 S6        30.15S
Baltimore      MOCLDY    66  58  75 SE3       30.15S
Philadelphia   FAIR      62  53  72 SW5       30.17S
Newark         MOCLDY    61  48  62 SW6       30.16R
Laguardia      MOCLDY    66  44  45 SW5       30.16R
J F K          MOCLDY    57  52  83 SW6       30.17S
Boston         FAIR      62  49  62 SW10      30.12F
Pittsburg      CLOUDY    71  63  75 SW8       30.07S
Akron          LGT RAIN  66  63  90 S9        30.10R FOG
Cleveland      LGT RAIN  66  64  93 S6        30.07R FOG
Cincinnati     TSTM      67  66  97 S7        30.05F FOG
Columbus       RAIN      64  64 100 MISG      30.07F
Detroit        RAIN      55  49  80 CALM      30.04F
Chicago O`Hare MOCLDY    55  54  96 N5        29.97F FOG
Minneapolis    CLOUDY    59  55  88 S5        30.01R
Indianapolis   FAIR      67  66  97 S5        30.01F
Toronto Canada CLOUDY    57  36  44 S5        30.07F

$$




USA.gov is the U.S. government's official web portal to all federal, state and local government web resources and services.